Back to catalog

STARLINK-37356

AliveCommunicationsVLEO
NORAD 68704·PAYLOAD·🇺🇸 United States

Launched Apr 14, 2026 from Cape Canaveral Space Force Station

Loading…

Next Passes (next 24 hours)

TLE

FreshSource: CelesTrak SupGP

Epoch: Sep 14, 2026, 21:33 UTC

1 68704C 26081F   26257.89840278  .00040997  00000+0  12110-2 0  2572
2 68704  53.1572 232.1327 0001355 104.5167 315.2480 15.34375549    18

Track STARLINK-37356 in real time with AllMySat

Download on the App Store